Simultaneous Nadir Overpasses (SNOs) Predictions

Prediction of SNOs between LANDSAT-8 and NOAA-19 Satellite Orbit:

Table of predicted SNOs for the next 14.0 days since TLE Epoch: 4/18/2014
Index Date (LANDSAT-8) Time (LANDSAT-8) Lat,Lon (LANDSAT-8) SZA (LANDSAT-8 ) Date (NOAA-19) Time (NOAA-19) Lat,Lon (NOAA-19) SZA (NOAA-19 ) Distance(km) Time Diff (sec)
1 04/18/2014 22:00:07 -71.83, 28.83 119.31 04/18/2014 21:59:45 -71.83, 28.80 119.31 1.27 22
2 04/18/2014 22:49:34 71.74,-163.68 60.59 04/18/2014 22:50:43 71.72,-163.75 60.57 2.95 69
3 04/21/2014 02:44:24 -71.86, -42.20 120.03 04/21/2014 02:43:40 -71.85, -42.19 120.05 1.78 44
4 04/21/2014 03:33:51 71.77, 125.28 59.86 04/21/2014 03:34:39 71.77, 125.21 59.86 2.68 48
5 04/23/2014 07:28:43 -71.87,-113.27 120.77 04/23/2014 07:27:35 -71.88,-113.21 120.76 2.44 68
6 04/23/2014 08:18:10 71.77, 54.21 59.13 04/23/2014 08:18:34 71.77, 54.24 59.13 1.20 24
7 04/25/2014 12:12:51 -72.55, 176.84 120.81 04/25/2014 12:11:43 -72.58, 174.44 120.77 80.19 68
8 04/25/2014 13:02:30 71.81, -16.83 58.44 04/25/2014 13:02:30 71.84, -16.84 58.48 3.54 0
9 04/25/2014 13:52:11 -71.11, 149.66 122.27 04/25/2014 13:53:18 -71.12, 151.72 122.27 74.41 67
10 04/27/2014 17:46:51 71.88, -87.82 57.80 04/27/2014 17:46:25 71.87, -87.85 57.80 1.27 26
11 04/27/2014 18:36:21 -71.77, 79.64 122.32 04/27/2014 18:37:25 -71.79, 79.55 122.30 3.58 64
12 04/29/2014 22:31:14 71.92,-158.86 57.16 04/29/2014 22:30:20 71.91,-158.88 57.15 1.30 54
13 04/29/2014 23:20:44 -71.82,
